| time (UTC) | temp F | wind direction | speed MPH | gust MPH | rain 1hr in | rain 24hr in | rain mn in | humidity % | barometer mb |
| 20260901021940 | 49 | 132 | 0.0 | 6.0 | 0.00 | 0.18 | 0.18 | 85 | 1024.5 |
| 20260901020942 | 49 | 173 | 0.0 | 0.0 | 0.00 | 0.18 | 0.18 | 87 | 1024.7 |
| 20260901015915 | 49 | 175 | 0.0 | 0.0 | 0.00 | 0.18 | 0.18 | 86 | 1024.9 |
| 20260901014849 | 50 | 175 | 0.0 | 0.0 | 0.00 | 0.18 | 0.18 | 86 | 1025.2 |
| 20260901013823 | 50 | 178 | 0.0 | 2.0 | 0.00 | 0.18 | 0.18 | 86 | 1025.3 |
| 20260901012805 | 50 | 159 | 0.0 | 0.0 | 0.00 | 0.18 | 0.18 | 86 | 1025.3 |
| 20260901011818 | 50 | 147 | 0.0 | 5.0 | 0.00 | 0.18 | 0.18 | 86 | 1025.2 |
| 20260901010816 | 50 | 131 | 0.0 | 0.0 | 0.00 | 0.18 | 0.18 | 88 | 1025.3 |
| 20260901005819 | 50 | 133 | 0.0 | 0.0 | 0.00 | 0.18 | 0.18 | 87 | 1025.2 |
| 20260901004834 | 51 | 143 | 0.0 | 0.0 | 0.00 | 0.18 | 0.18 | 88 | 1025.3 |
| 20260901003825 | 51 | 338 | 1.0 | 6.0 | 0.00 | 0.18 | 0.18 | 88 | 1025.2 |
| 20260901002804 | 51 | 237 | 0.0 | 2.0 | 0.00 | 0.18 | 0.18 | 87 | 1025.1 |
| 20260901001734 | 50 | 169 | 1.0 | 14.0 | 0.00 | 0.18 | 0.18 | 88 | 1024.9 |
| 20260901000745 | 50 | 165 | 0.0 | 0.0 | 0.00 | 0.18 | 0.18 | 88 | 1024.9 |
| 20260831235716 | 50 | 150 | 0.0 | 0.0 | 0.00 | 0.18 | 0.18 | 88 | 1024.8 |
| 20260831234730 | 49 | 160 | 1.0 | 8.0 | 0.00 | 0.18 | 0.18 | 88 | 1024.6 |
| 20260831233702 | 49 | 130 | 3.0 | 11.0 | 0.00 | 0.18 | 0.18 | 87 | 1024.5 |
| 20260831232640 | 49 | 156 | 1.0 | 8.0 | 0.00 | 0.18 | 0.18 | 87 | 1024.6 |
| 20260831230436 | 49 | 123 | 2.0 | 8.0 | 0.27 | 0.18 | 0.18 | 84 | 1024.8 |
| 20260831225424 | 52 | 188 | 2.0 | 13.0 | 0.55 | 0.12 | 0.13 | 79 | 1025.5 |
| 20260831224419 | 54 | 177 | 1.0 | 0.0 | 0.05 | 0.04 | 0.04 | 79 | 1025.2 |
| 20260831223408 | 56 | 150 | 1.0 | 7.0 | 0.18 | 0.03 | 0.03 | 68 | 1024.8 |
| 20260831222432 | 58 | 215 | 2.0 | 9.0 | 0.00 | 0.00 | 0.00 | 62 | 1024.5 |
| 20260831221448 | 59 | 212 | 2.0 | 10.0 | 0.00 | 0.00 | 0.00 | 74 | 1024.0 |
| 20260831220432 | 59 | 157 | 3.0 | 13.0 | 0.00 | 0.00 | 0.00 | 72 | 1023.5 |
| 20260831215407 | 59 | 156 | 4.0 | 13.0 | 0.00 | 0.00 | 0.00 | 72 | 1023.3 |
| 20260831214412 | 59 | 119 | 5.0 | 12.0 | 0.00 | 0.00 | 0.00 | 72 | 1023.3 |
| 20260831211117 | 61 | 141 | 8.0 | 18.0 | 0.00 | 0.00 | 0.00 | 66 | 1023.4 |
| 20260831210046 | 62 | 116 | 6.0 | 15.0 | 0.00 | 0.00 | 0.00 | 65 | 1023.7 |
| 20260831205110 | 62 | 115 | 6.0 | 12.0 | 0.00 | 0.00 | 0.00 | 64 | 1023.8 |
| 20260831201815 | 64 | 132 | 8.0 | 15.0 | 0.00 | 0.00 | 0.00 | 58 | 1023.9 |
| 20260831200749 | 64 | 126 | 8.0 | 14.0 | 0.00 | 0.00 | 0.00 | 56 | 1023.8 |
| 20260831194553 | 66 | 175 | 5.0 | 11.0 | 0.00 | 0.00 | 0.00 | 54 | 1023.9 |
| 20260831193617 | 66 | 145 | 5.0 | 14.0 | 0.00 | 0.00 | 0.00 | 53 | 1024.3 |
| 20260831192635 | 66 | 131 | 3.0 | 15.0 | 0.00 | 0.00 | 0.00 | 52 | 1024.5 |
| 20260831191619 | 66 | 163 | 6.0 | 15.0 | 0.00 | 0.00 | 0.00 | 53 | 1024.7 |
| 20260831190631 | 66 | 162 | 5.0 | 13.0 | 0.00 | 0.00 | 0.00 | 53 | 1024.6 |
| 20260831185655 | 65 | 217 | 5.0 | 15.0 | 0.00 | 0.00 | 0.00 | 56 | 1024.8 |
| 20260831184718 | 65 | 130 | 8.0 | 15.0 | 0.00 | 0.00 | 0.00 | 54 | 1024.9 |
| 20260831183722 | 67 | 137 | 6.0 | 14.0 | 0.00 | 0.00 | 0.00 | 50 | 1025.0 |
| 20260831182733 | 66 | 130 | 4.0 | 13.0 | 0.00 | 0.00 | 0.00 | 53 | 1025.1 |
| 20260831181702 | 64 | 116 | 7.0 | 15.0 | 0.00 | 0.00 | 0.00 | 55 | 1025.4 |
| 20260831180650 | 63 | 130 | 9.0 | 16.0 | 0.00 | 0.00 | 0.00 | 58 | 1025.5 |
| 20260831175626 | 62 | 142 | 6.0 | 17.0 | 0.00 | 0.00 | 0.00 | 61 | 1025.7 |
| 20260831174553 | 61 | 121 | 7.0 | 17.0 | 0.00 | 0.00 | 0.00 | 61 | 1025.9 |
| 20260831173532 | 60 | 178 | 5.0 | 16.0 | 0.00 | 0.00 | 0.00 | 62 | 1026.1 |
| 20260831171416 | 60 | 154 | 7.0 | 20.0 | 0.00 | 0.00 | 0.00 | 63 | 1026.1 |
| 20260831170345 | 60 | 132 | 7.0 | 16.0 | 0.00 | 0.00 | 0.00 | 63 | 1025.9 |
| 20260831164139 | 63 | 125 | 6.0 | 17.0 | 0.00 | 0.00 | 0.00 | 55 | 1025.6 |
| 20260831163154 | 64 | 94 | 4.0 | 9.0 | 0.00 | 0.00 | 0.00 | 57 | 1025.4 |
| 20260831162456 | 65 | 136 | 5.0 | 14.0 | 0.00 | 0.00 | 0.00 | 56 | 1025.3 |
| 20260831161521 | 66 | 95 | 3.0 | 12.0 | 0.00 | 0.00 | 0.00 | 53 | 1025.3 |
| 20260831160541 | 64 | 286 | 3.0 | 12.0 | 0.00 | 0.00 | 0.00 | 57 | 1025.2 |
| 20260831154407 | 63 | 121 | 1.0 | 8.0 | 0.00 | 0.00 | 0.00 | 57 | 1025.2 |
| 20260831153416 | 61 | 97 | 2.0 | 12.0 | 0.00 | 0.00 | 0.00 | 61 | 1025.2 |
| 20260831151234 | 59 | 114 | 3.0 | 9.0 | 0.00 | 0.00 | 0.00 | 65 | 1025.3 |
| 20260831150232 | 57 | 149 | 0.0 | 3.0 | 0.00 | 0.00 | 0.00 | 69 | 1025.6 |
| 20260831145257 | 57 | 171 | 3.0 | 9.0 | 0.00 | 0.00 | 0.00 | 68 | 1025.5 |
| 20260831144322 | 56 | 184 | 3.0 | 10.0 | 0.00 | 0.00 | 0.00 | 69 | 1025.6 |
| 20260831143332 | 56 | 130 | 4.0 | 10.0 | 0.00 | 0.00 | 0.00 | 70 | 1025.6 |
| 20260831142317 | 55 | 131 | 4.0 | 10.0 | 0.00 | 0.00 | 0.00 | 71 | 1025.6 |
| 20260831141337 | 55 | 121 | 4.0 | 11.0 | 0.00 | 0.17 | 0.00 | 73 | 1025.5 |
| 20260831140339 | 54 | 105 | 5.0 | 11.0 | 0.00 | 0.24 | 0.00 | 74 | 1025.4 |
| 20260831135403 | 53 | 129 | 4.0 | 11.0 | 0.00 | 0.24 | 0.00 | 76 | 1025.4 |
| 20260831134354 | 53 | 132 | 4.0 | 12.0 | 0.00 | 0.24 | 0.00 | 76 | 1025.3 |
| 20260831133357 | 53 | 157 | 4.0 | 12.0 | 0.00 | 0.24 | 0.00 | 77 | 1025.1 |
| 20260831132339 | 52 | 144 | 4.0 | 13.0 | 0.00 | 0.24 | 0.00 | 78 | 1025.2 |
| 20260831131348 | 52 | 163 | 4.0 | 13.0 | 0.00 | 0.24 | 0.00 | 78 | 1025.1 |
| 20260831130400 | 52 | 136 | 3.0 | 11.0 | 0.00 | 0.24 | 0.00 | 78 | 1025.0 |
| 20260831125350 | 52 | 135 | 4.0 | 12.0 | 0.00 | 0.24 | 0.00 | 78 | 1024.9 |
| 20260831124351 | 51 | 151 | 4.0 | 12.0 | 0.00 | 0.24 | 0.00 | 79 | 1024.8 |
| 20260831123337 | 51 | 166 | 4.0 | 11.0 | 0.00 | 0.24 | 0.00 | 79 | 1024.8 |
| 20260831122351 | 51 | 139 | 3.0 | 11.0 | 0.00 | 0.24 | 0.00 | 78 | 1024.8 |
| 20260831121407 | 52 | 135 | 3.0 | 10.0 | 0.00 | 0.24 | 0.00 | 77 | 1024.9 |
| 20260831120355 | 52 | 144 | 5.0 | 13.0 | 0.00 | 0.24 | 0.00 | 77 | 1025.1 |
| 20260831115413 | 52 | 157 | 4.0 | 15.0 | 0.00 | 0.24 | 0.00 | 76 | 1025.0 |
| 20260831114425 | 52 | 140 | 4.0 | 15.0 | 0.00 | 0.24 | 0.00 | 76 | 1025.1 |
| 20260831113416 | 52 | 179 | 4.0 | 14.0 | 0.00 | 0.24 | 0.00 | 75 | 1025.2 |
| 20260831112430 | 52 | 158 | 5.0 | 14.0 | 0.00 | 0.24 | 0.00 | 74 | 1025.2 |
| 20260831110259 | 51 | 148 | 5.0 | 12.0 | 0.00 | 0.24 | 0.00 | 69 | 1025.2 |
| 20260831104124 | 49 | 169 | 4.0 | 8.0 | 0.00 | 0.24 | 0.00 | 71 | 1025.0 |
| 20260831103147 | 49 | 142 | 3.0 | 8.0 | 0.00 | 0.25 | 0.00 | 71 | 1025.0 |
| 20260831102147 | 49 | 158 | 3.0 | 9.0 | 0.00 | 0.25 | 0.00 | 73 | 1025.0 |
| 20260831101123 | 49 | 148 | 4.0 | 9.0 | 0.00 | 0.25 | 0.00 | 74 | 1025.1 |
| 20260831100120 | 49 | 145 | 3.0 | 9.0 | 0.00 | 0.25 | 0.00 | 74 | 1025.0 |
| 20260831095140 | 49 | 130 | 6.0 | 11.0 | 0.00 | 0.25 | 0.00 | 74 | 1025.0 |
| 20260831094137 | 49 | 109 | 5.0 | 11.0 | 0.00 | 0.25 | 0.00 | 75 | 1025.1 |
| 20260831093130 | 49 | 145 | 5.0 | 10.0 | 0.00 | 0.25 | 0.00 | 77 | 1025.0 |
| 20260831091026 | 50 | 107 | 5.0 | 12.0 | 0.00 | 0.27 | 0.00 | 77 | 1024.9 |
| 20260831090025 | 50 | 142 | 5.0 | 10.0 | 0.00 | 0.27 | 0.00 | 76 | 1025.0 |
| 20260831085015 | 50 | 147 | 4.0 | 14.0 | 0.00 | 0.27 | 0.00 | 76 | 1025.1 |
| 20260831083944 | 51 | 167 | 6.0 | 14.0 | 0.00 | 0.27 | 0.00 | 74 | 1025.1 |
| 20260831082941 | 51 | 167 | 6.0 | 12.0 | 0.00 | 0.27 | 0.00 | 73 | 1025.1 |
| 20260831080851 | 49 | 171 | 2.0 | 9.0 | 0.00 | 0.29 | 0.00 | 76 | 1025.3 |
| 20260831075914 | 49 | 146 | 3.0 | 10.0 | 0.00 | 0.29 | 0.00 | 77 | 1025.2 |
| 20260831074934 | 48 | 171 | 1.0 | 7.0 | 0.00 | 0.29 | 0.00 | 77 | 1025.3 |
| 20260831073927 | 48 | 137 | 2.0 | 8.0 | 0.00 | 0.29 | 0.00 | 77 | 1025.4 |
| 20260831072918 | 49 | 146 | 0.0 | 8.0 | 0.00 | 0.29 | 0.00 | 76 | 1025.5 |
| 20260831070744 | 49 | 153 | 1.0 | 10.0 | 0.00 | 0.29 | 0.00 | 77 | 1025.5 |
| 20260831064627 | 49 | 169 | 3.0 | 10.0 | 0.00 | 0.29 | 0.00 | 78 | 1025.5 |
| 20260831063627 | 49 | 178 | 2.0 | 8.0 | 0.00 | 0.29 | 0.00 | 78 | 1025.5 |
| 20260831062635 | 49 | 138 | 2.0 | 8.0 | 0.00 | 0.29 | 0.00 | 78 | 1025.4 |
| 20260831061604 | 49 | 167 | 2.0 | 8.0 | 0.00 | 0.29 | 0.00 | 79 | 1025.5 |
| 20260831060549 | 49 | 150 | 2.0 | 7.0 | 0.00 | 0.29 | 0.00 | 79 | 1025.5 |
| 20260831055544 | 49 | 142 | 3.0 | 11.0 | 0.00 | 0.31 | 0.30 | 80 | 1025.5 |
| 20260831054559 | 49 | 167 | 3.0 | 9.0 | 0.00 | 0.33 | 0.30 | 80 | 1025.4 |
| 20260831052452 | 50 | 147 | 3.0 | 12.0 | 0.00 | 0.37 | 0.30 | 80 | 1025.4 |
| 20260831050319 | 50 | 134 | 4.0 | 11.0 | 0.00 | 0.41 | 0.30 | 81 | 1025.5 |
| 20260831045246 | 49 | 155 | 2.0 | 8.0 | 0.00 | 0.44 | 0.30 | 82 | 1025.5 |
| 20260831044247 | 49 | 141 | 1.0 | 7.0 | 0.00 | 0.48 | 0.30 | 82 | 1025.5 |
| 20260831043255 | 49 | 153 | 4.0 | 10.0 | 0.00 | 0.49 | 0.30 | 83 | 1025.4 |
| 20260831042308 | 49 | 130 | 4.0 | 10.0 | 0.00 | 0.49 | 0.30 | 83 | 1025.4 |
| 20260831041329 | 49 | 145 | 3.0 | 8.0 | 0.00 | 0.51 | 0.30 | 83 | 1025.3 |
| 20260831040348 | 49 | 129 | 4.0 | 8.0 | 0.00 | 0.51 | 0.30 | 81 | 1025.4 |
| 20260831031950 | 49 | 155 | 1.0 | 7.0 | 0.00 | 0.51 | 0.30 | 79 | 1024.9 |
| 20260831030946 | 50 | 140 | 2.0 | 2.0 | 0.00 | 0.51 | 0.30 | 78 | 1024.7 |
| 20260831030007 | 50 | 138 | 4.0 | 9.0 | 0.00 | 0.51 | 0.30 | 79 | 1024.5 |
| 20260831025016 | 50 | 161 | 3.0 | 9.0 | 0.00 | 0.51 | 0.30 | 79 | 1024.3 |
| 20260831023943 | 51 | 149 | 0.0 | 0.0 | 0.00 | 0.51 | 0.30 | 78 | 1024.2 |
| 20260831022937 | 52 | 156 | 0.0 | 0.0 | 0.00 | 0.51 | 0.30 | 76 | 1024.1 |